Location: *
(48.4333°N, 5.0333°W)
Time: 15:52:31
(UTC+00:00)

STARLINK-2657 - Pass Details

Date: 31 July 2021
Orbit: 546 x 548 km, 53.1° (Epoch: 28 September)

Event Time Altitude Azimuth Distance (km) Brightness Sun altitude
Rises 20:36:44 0° 293° (WNW) 2,722 9.1 -6.2°
Reaches altitude 10° 20:39:11 10° 281° (WNW) 1,825 7.5 -6.5°
Maximum altitude 20:42:44 28° 222° (SW) 1,048 5.1 -7.0°
Drops below altitude 10° 20:46:17 10° 163° (SSE) 1,814 5.8 -7.4°
Enters shadow 20:47:08 - 158° (SSE) 2,115 6.1 -7.6°
